Madison, SD

1:00 PM CST on November 21, 2019 (GMT -0600)
Madison Municipal

Weather History for KMDS - September, 2019

Change the Weather History Date:

Tuesday, September 17, 2019

  Actual Average Record
Temperature  
Mean Temperature 78 °F -  
Max Temperature 84 °F 69 °F 73 °F (2014)
Min Temperature 71 °F 47 °F 37 °F (2017)
Cooling Degree Days 12    
Growing Degree Days 28 (Base 50)    
Moisture  
Dew Point 72 °F    
Average Humidity 87    
Maximum Humidity 100    
Minimum Humidity 62    
Precipitation  
Precipitation 0.21 in - - ()
Sea Level Pressure  
Sea Level Pressure 29.83 in    
Wind  
Wind Speed 18 mph ()    
Max Wind Speed 30 mph    
Max Gust Speed 40 mph    
Visibility 9.8 miles    
Events Rain , Thunderstorm    
Averages and records for this station are not official NWS values.
T = Trace of Precipitation, MM = Missing Value Source: Averaged Metar Reports

Daily Weather History Graph

Daily Weather History Graph

Search for Another Location

Airport or City:

Astronomy

Sep. 17, 2019 Rise Set
Actual Time 7:09 AM CDT 7:35 PM CDT
Civil Twilight 6:40 AM CDT 8:04 PM CDT
Nautical Twilight 6:06 AM CDT 8:38 PM CDT
Astronomical Twilight 5:31 AM CDT 9:13 PM CDT
Moon 9:32 PM CDT (9/17) 10:20 AM CDT (9/17)
Length of Visible Light 13h 23m
Length of Day
12h 25m
Waning Gibbous, 89% of the Moon is Illuminated
Sep 17
Waning Gibbous
Sep 21
Last Quarter
Sep 28
New
Oct 5
First Quarter
Oct 13
Full

Hourly Weather History & Observations

Time (CDT) Temp. Heat Index Dew Point Humidity Pressure Visibility Wind Dir Wind Speed Gust Speed Precip Events Conditions
12:15 AM 75.2 °F - 75.2 °F 100% 29.89 in 10.0 mi South 20.7 mph 29.9 mph N/A   Mostly Cloudy
12:20 AM 75.2 °F - 75.2 °F 100% 29.89 in 10.0 mi South 21.9 mph 29.9 mph N/A   Mostly Cloudy
12:35 AM 73.4 °F - 73.4 °F 100% 29.90 in 9.0 mi South 17.3 mph 27.6 mph N/A Rain Light Rain
12:55 AM 73.4 °F - 73.4 °F 100% 29.91 in 10.0 mi South 13.8 mph - 0.03 in Rain Light Rain
1:00 AM 73.4 °F - 73.4 °F 100% 29.91 in 10.0 mi South 11.5 mph 17.3 mph 0.03 in Rain Light Rain
1:15 AM 73.4 °F - 73.4 °F 100% 29.91 in 9.0 mi South 12.7 mph 17.3 mph N/A Rain Light Rain
1:20 AM 73.4 °F - 73.4 °F 100% 29.91 in 10.0 mi South 12.7 mph 17.3 mph N/A Rain Light Rain
1:35 AM 71.6 °F - 71.6 °F 100% 29.90 in 5.0 mi SE 13.8 mph 19.6 mph 0.08 in Rain Heavy Rain
1:40 AM 71.6 °F - 71.6 °F 100% 29.89 in 5.0 mi SSE 16.1 mph 21.9 mph 0.09 in Rain Rain
1:55 AM 73.4 °F - 73.4 °F 100% 29.88 in 10.0 mi SSE 17.3 mph 24.2 mph 0.09 in   Mostly Cloudy
2:00 AM 73.4 °F - 73.4 °F 100% 29.88 in 9.0 mi SSE 18.4 mph 26.5 mph 0.09 in   Mostly Cloudy
2:15 AM 71.6 °F - 71.6 °F 100% 29.87 in 9.0 mi SE 16.1 mph 21.9 mph N/A Thunderstorm Overcast
2:20 AM 71.6 °F - 71.6 °F 100% 29.87 in 10.0 mi SSE 15.0 mph 21.9 mph N/A Thunderstorm Overcast
2:35 AM 71.6 °F - 71.6 °F 100% 29.86 in 10.0 mi SSE 12.7 mph - N/A Thunderstorm Overcast
2:55 AM 71.6 °F - 71.6 °F 100% 29.85 in 10.0 mi SSE 16.1 mph 23.0 mph N/A Thunderstorm Overcast
3:15 AM 71.6 °F - 71.6 °F 100% 29.85 in 7.0 mi SSE 17.3 mph 25.3 mph N/A Rain Light Rain
3:35 AM 73.4 °F - 73.4 °F 100% 29.85 in 10.0 mi SSE 16.1 mph 24.2 mph N/A Thunderstorm Mostly Cloudy
3:40 AM 73.4 °F - 73.4 °F 100% 29.84 in 10.0 mi South 15.0 mph 24.2 mph N/A Thunderstorm Mostly Cloudy
3:55 AM 71.6 °F - 71.6 °F 100% 29.84 in 10.0 mi South 18.4 mph 29.9 mph N/A   Mostly Cloudy
4:00 AM 73.4 °F - 73.4 °F 100% 29.84 in 10.0 mi South 17.3 mph 29.9 mph N/A   Mostly Cloudy
4:15 AM 71.6 °F - 71.6 °F 100% 29.84 in 10.0 mi South 18.4 mph 28.8 mph N/A   Mostly Cloudy
4:35 AM 71.6 °F - 71.6 °F 100% 29.84 in 10.0 mi South 18.4 mph 26.5 mph N/A   Mostly Cloudy
4:40 AM 71.6 °F - 71.6 °F 100% 29.84 in 10.0 mi South 18.4 mph 26.5 mph N/A   Scattered Clouds
4:55 AM 71.6 °F - 71.6 °F 100% 29.84 in 10.0 mi South 18.4 mph 26.5 mph N/A   Scattered Clouds
5:00 AM 71.6 °F - 71.6 °F 100% 29.84 in 10.0 mi South 18.4 mph 26.5 mph N/A   Scattered Clouds
5:15 AM 71.6 °F - 71.6 °F 100% 29.84 in 10.0 mi South 19.6 mph 25.3 mph N/A   Overcast
5:20 AM 71.6 °F - 71.6 °F 100% 29.84 in 10.0 mi South 17.3 mph 25.3 mph N/A   Overcast
5:35 AM 71.6 °F - 71.6 °F 100% 29.84 in 10.0 mi South 17.3 mph 27.6 mph N/A   Overcast
5:40 AM 71.6 °F - 71.6 °F 100% 29.84 in 10.0 mi South 18.4 mph 28.8 mph N/A   Overcast
5:55 AM 71.6 °F - 71.6 °F 100% 29.84 in 10.0 mi South 18.4 mph 25.3 mph N/A   Mostly Cloudy
6:00 AM 71.6 °F - 71.6 °F 100% 29.84 in 10.0 mi South 18.4 mph 25.3 mph N/A   Scattered Clouds
6:35 AM 71.6 °F - 71.6 °F 100% 29.84 in 10.0 mi South 17.3 mph 24.2 mph N/A   Scattered Clouds
6:55 AM 71.6 °F - 71.6 °F 100% 29.84 in 10.0 mi South 18.4 mph 24.2 mph N/A   Scattered Clouds
7:15 AM 71.6 °F - 71.6 °F 100% 29.84 in 10.0 mi South 18.4 mph 26.5 mph N/A   Mostly Cloudy
7:20 AM 71.6 °F - 71.6 °F 100% 29.84 in 10.0 mi South 18.4 mph 26.5 mph N/A   Scattered Clouds
7:35 AM 71.6 °F - 71.6 °F 100% 29.85 in 10.0 mi South 18.4 mph 26.5 mph N/A   Partly Cloudy
7:40 AM 71.6 °F - 71.6 °F 100% 29.85 in 10.0 mi South 19.6 mph 27.6 mph N/A   Partly Cloudy
7:55 AM 71.6 °F - 71.6 °F 100% 29.85 in 10.0 mi South 18.4 mph 26.5 mph N/A   Clear
8:00 AM 71.6 °F - 71.6 °F 100% 29.84 in 10.0 mi South 19.6 mph 26.5 mph N/A   Clear
8:15 AM 71.6 °F - 71.6 °F 100% 29.85 in 10.0 mi South 19.6 mph 28.8 mph N/A   Clear
8:35 AM 73.4 °F - 73.4 °F 100% 29.84 in 10.0 mi South 21.9 mph 28.8 mph N/A   Clear
8:40 AM 73.4 °F - 73.4 °F 100% 29.85 in 10.0 mi South 18.4 mph 28.8 mph N/A   Clear
8:55 AM 73.4 °F - 73.4 °F 100% 29.85 in 10.0 mi South 18.4 mph 27.6 mph N/A   Clear
9:15 AM 73.4 °F - 73.4 °F 100% 29.85 in 10.0 mi South 17.3 mph 27.6 mph N/A   Clear
9:20 AM 73.4 °F - 73.4 °F 100% 29.84 in 10.0 mi South 19.6 mph 27.6 mph N/A   Clear
9:35 AM 75.2 °F - 75.2 °F 100% 29.84 in 10.0 mi South 20.7 mph 31.1 mph N/A   Clear
9:55 AM 75.2 °F - 75.2 °F 100% 29.84 in 10.0 mi South 20.7 mph 31.1 mph N/A   Clear
10:00 AM 75.2 °F - 75.2 °F 100% 29.84 in 10.0 mi South 21.9 mph 31.1 mph N/A   Clear
10:15 AM 75.2 °F - 75.2 °F 100% 29.84 in 10.0 mi South 23.0 mph 32.2 mph N/A   Clear
10:20 AM 75.2 °F - 75.2 °F 100% 29.85 in 10.0 mi South 19.6 mph 32.2 mph N/A   Clear
10:35 AM 77.0 °F - 75.2 °F 94% 29.85 in 10.0 mi South 19.6 mph 27.6 mph N/A   Clear
10:55 AM 77.0 °F - 75.2 °F 94% 29.85 in 10.0 mi South 21.9 mph 29.9 mph N/A   Clear
11:00 AM 77.0 °F - 73.4 °F 89% 29.85 in 10.0 mi South 21.9 mph 29.9 mph N/A   Clear
11:15 AM 77.0 °F - 73.4 °F 89% 29.84 in 10.0 mi South 24.2 mph 33.4 mph N/A   Clear
11:20 AM 77.0 °F - 75.2 °F 94% 29.84 in 10.0 mi South 24.2 mph 33.4 mph N/A   Clear
11:35 AM 78.8 °F - 73.4 °F 83% 29.84 in 10.0 mi South 21.9 mph 31.1 mph N/A   Clear
11:55 AM 80.6 °F 85.4 °F 73.4 °F 79% 29.84 in 10.0 mi South 25.3 mph 32.2 mph N/A   Clear
12:00 PM 80.6 °F 85.4 °F 73.4 °F 79% 29.84 in 10.0 mi South 24.2 mph 35.7 mph N/A   Clear
12:15 PM 80.6 °F 85.4 °F 73.4 °F 79% 29.84 in 10.0 mi South 25.3 mph 33.4 mph N/A   Clear
12:20 PM 80.6 °F 85.4 °F 73.4 °F 79% 29.83 in 10.0 mi South 24.2 mph 34.5 mph N/A   Clear
12:35 PM 80.6 °F 85.4 °F 73.4 °F 79% 29.83 in 10.0 mi South 25.3 mph 33.4 mph N/A   Clear
12:55 PM 82.4 °F 87.2 °F 71.6 °F 70% 29.83 in 10.0 mi South 26.5 mph 36.8 mph N/A   Clear
1:00 PM 82.4 °F 87.2 °F 71.6 °F 70% 29.83 in 10.0 mi South 25.3 mph 36.8 mph N/A   Clear
1:15 PM 82.4 °F 88.2 °F 73.4 °F 74% 29.82 in 10.0 mi South 23.0 mph 32.2 mph N/A   Clear
1:20 PM 82.4 °F 88.2 °F 73.4 °F 74% 29.82 in 10.0 mi South 26.5 mph 35.7 mph N/A   Clear
1:35 PM 82.4 °F 87.2 °F 71.6 °F 70% 29.82 in 10.0 mi South 29.9 mph 40.3 mph N/A   Clear
1:40 PM 82.4 °F 87.2 °F 71.6 °F 70% 29.82 in 10.0 mi South 25.3 mph 40.3 mph N/A   Clear
2:15 PM 82.4 °F 87.2 °F 71.6 °F 70% 29.80 in 10.0 mi South 26.5 mph 38.0 mph N/A   Clear
2:20 PM 84.2 °F 89.6 °F 71.6 °F 66% 29.80 in 10.0 mi South 26.5 mph 38.0 mph N/A   Clear
2:35 PM 84.2 °F 90.9 °F 73.4 °F 70% 29.80 in 10.0 mi South 25.3 mph 38.0 mph N/A   Clear
2:40 PM 84.2 °F 89.6 °F 71.6 °F 66% 29.80 in 10.0 mi South 26.5 mph 32.2 mph N/A   Clear
2:55 PM 84.2 °F 89.6 °F 71.6 °F 66% 29.80 in 10.0 mi South 21.9 mph 34.5 mph N/A   Clear
3:15 PM 84.2 °F 90.9 °F 73.4 °F 70% 29.80 in 10.0 mi South 19.6 mph 33.4 mph N/A   Clear
3:20 PM 84.2 °F 89.6 °F 71.6 °F 66% 29.80 in 10.0 mi South 24.2 mph 32.2 mph N/A   Clear
3:35 PM 84.2 °F 89.6 °F 71.6 °F 66% 29.79 in 10.0 mi South 20.7 mph 31.1 mph N/A   Clear
3:40 PM 84.2 °F 89.6 °F 71.6 °F 66% 29.79 in 10.0 mi South 23.0 mph 32.2 mph N/A   Clear
3:55 PM 84.2 °F 89.6 °F 71.6 °F 66% 29.79 in 10.0 mi South 24.2 mph 35.7 mph N/A   Clear
4:15 PM 84.2 °F 88.4 °F 69.8 °F 62% 29.79 in 10.0 mi South 26.5 mph 38.0 mph N/A   Clear
4:35 PM 82.4 °F 87.2 °F 71.6 °F 70% 29.78 in 10.0 mi South 26.5 mph 33.4 mph N/A   Clear
4:40 PM 82.4 °F 87.2 °F 71.6 °F 70% 29.79 in 10.0 mi South 21.9 mph 33.4 mph N/A   Clear
4:55 PM 82.4 °F 87.2 °F 71.6 °F 70% 29.78 in 10.0 mi South 18.4 mph 32.2 mph N/A   Clear
5:00 PM 82.4 °F 87.2 °F 71.6 °F 70% 29.78 in 10.0 mi South 18.4 mph 32.2 mph N/A   Clear
5:15 PM 82.4 °F 87.2 °F 71.6 °F 70% 29.78 in 10.0 mi South 20.7 mph 36.8 mph N/A   Clear
5:20 PM 82.4 °F 87.2 °F 71.6 °F 70% 29.78 in 10.0 mi South 24.2 mph 36.8 mph N/A   Clear
5:35 PM 82.4 °F 87.2 °F 71.6 °F 70% 29.78 in 10.0 mi South 20.7 mph 29.9 mph N/A   Clear
5:55 PM 80.6 °F 85.4 °F 73.4 °F 79% 29.78 in 10.0 mi South 20.7 mph 25.3 mph N/A   Clear
6:15 PM 80.6 °F 85.4 °F 73.4 °F 79% 29.78 in 10.0 mi South 19.6 mph 25.3 mph N/A   Clear
6:35 PM 80.6 °F 84.6 °F 71.6 °F 74% 29.78 in 10.0 mi South 17.3 mph 25.3 mph N/A   Clear
6:40 PM 80.6 °F 84.6 °F 71.6 °F 74% 29.78 in 10.0 mi South 17.3 mph 25.3 mph N/A   Clear
6:55 PM 78.8 °F - 71.6 °F 78% 29.78 in 10.0 mi South 18.4 mph 24.2 mph N/A   Clear
7:15 PM 78.8 °F - 71.6 °F 78% 29.78 in 10.0 mi South 13.8 mph 24.2 mph N/A   Clear
7:20 PM 78.8 °F - 71.6 °F 78% 29.78 in 10.0 mi South 16.1 mph 23.0 mph N/A   Clear
7:35 PM 77.0 °F - 71.6 °F 83% 29.78 in 10.0 mi South 13.8 mph 23.0 mph N/A   Clear
7:40 PM 77.0 °F - 71.6 °F 83% 29.79 in 10.0 mi South 15.0 mph 23.0 mph N/A   Clear
7:55 PM 77.0 °F - 71.6 °F 83% 29.79 in 10.0 mi SSE 17.3 mph 21.9 mph N/A   Clear
8:00 PM 77.0 °F - 71.6 °F 83% 29.79 in 10.0 mi SSE 13.8 mph 21.9 mph N/A   Clear
8:15 PM 77.0 °F - 71.6 °F 83% 29.79 in 10.0 mi SSE 13.8 mph 18.4 mph N/A   Clear
8:35 PM 77.0 °F - 69.8 °F 78% 29.80 in 10.0 mi SSE 13.8 mph 20.7 mph N/A   Clear
8:40 PM 77.0 °F - 69.8 °F 78% 29.80 in 10.0 mi SSE 12.7 mph 20.7 mph N/A   Clear
8:55 PM 75.2 °F - 69.8 °F 83% 29.80 in 10.0 mi SSE 13.8 mph 19.6 mph N/A   Clear
9:15 PM 75.2 °F - 69.8 °F 83% 29.80 in 10.0 mi SSE 13.8 mph 21.9 mph N/A   Clear
9:20 PM 75.2 °F - 68.0 °F 78% 29.80 in 10.0 mi South 15.0 mph 21.9 mph N/A   Clear
9:35 PM 75.2 °F - 68.0 °F 78% 29.80 in 10.0 mi South 16.1 mph 20.7 mph N/A   Clear
9:55 PM 75.2 °F - 68.0 °F 78% 29.80 in 10.0 mi South 16.1 mph 21.9 mph N/A   Clear
10:15 PM 75.2 °F - 68.0 °F 78% 29.80 in 10.0 mi South 16.1 mph 23.0 mph N/A   Clear
10:20 PM 75.2 °F - 68.0 °F 78% 29.80 in 10.0 mi South 15.0 mph 23.0 mph N/A   Clear
10:35 PM 75.2 °F - 68.0 °F 78% 29.80 in 10.0 mi South 17.3 mph 25.3 mph N/A   Clear
10:40 PM 75.2 °F - 68.0 °F 78% 29.80 in 10.0 mi South 16.1 mph 25.3 mph N/A   Clear
10:55 PM 75.2 °F - 68.0 °F 78% 29.79 in 10.0 mi South 19.6 mph 27.6 mph N/A   Clear
11:15 PM 75.2 °F - 68.0 °F 78% 29.78 in 10.0 mi South 17.3 mph 25.3 mph N/A   Clear
11:35 PM 75.2 °F - 68.0 °F 78% 29.78 in 10.0 mi South 17.3 mph 24.2 mph N/A   Clear
11:40 PM 75.2 °F - 68.0 °F 78% 29.78 in 10.0 mi South 19.6 mph 25.3 mph N/A   Clear
11:55 PM 75.2 °F - 68.0 °F 78% 29.78 in 10.0 mi South 18.4 mph 27.6 mph N/A   Clear